N4DWK Weather Reports


Display with metric or nautical units.
time (UTC)temp
F
wind
direction
speed
MPH
gust
MPH
rain 1hr
in
rain 24hr
in
rain mn
in
humidity
%
barometer
mb
20260509171504 75 214 3.0 8.0 0.00 0.00 0.00 56 1010.3
20260509171005 73 231 3.0 8.0 0.00 0.00 0.00 59 1010.4
20260509170505 72 208 2.0 9.0 0.00 0.00 0.00 60 1010.6
20260509170005 72 231 4.0 10.0 0.00 0.00 0.00 60 1010.6
20260509165505 72 201 3.0 10.0 0.00 0.00 0.00 59 1010.8
20260509165005 72 228 3.0 10.0 0.00 0.00 0.00 60 1010.9
20260509163005 73 237 4.0 9.0 0.00 0.00 0.00 58 1011.0
20260509162505 72 145 2.0 9.0 0.00 0.00 0.00 60 1010.9
20260509162004 72 229 3.0 12.0 0.00 0.00 0.00 60 1011.0
20260509161505 71 208 3.0 12.0 0.00 0.00 0.00 60 1011.0
20260509161006 71 213 6.0 10.0 0.00 0.00 0.00 58 1011.2
20260509160505 71 223 5.0 9.0 0.00 0.00 0.00 58 1011.3
20260509160005 71 229 3.0 8.0 0.00 0.00 0.00 61 1011.3
20260509155505 71 224 4.0 8.0 0.00 0.00 0.00 61 1011.3
20260509155005 70 215 4.0 12.0 0.00 0.00 0.00 61 1011.3
20260509154505 70 217 5.0 15.0 0.00 0.00 0.00 61 1011.5
20260509154006 70 223 6.0 15.0 0.00 0.00 0.00 60 1011.7
20260509153505 70 226 6.0 12.0 0.00 0.00 0.00 61 1011.7
20260509153006 70 223 5.0 12.0 0.00 0.00 0.00 62 1011.6
20260509152506 70 243 5.0 9.0 0.00 0.00 0.00 62 1011.5
20260509152006 69 229 4.0 8.0 0.00 0.00 0.00 66 1011.6
20260509151505 68 234 4.0 9.0 0.00 0.00 0.00 65 1011.8
20260509150505 68 215 7.0 12.0 0.00 0.00 0.00 66 1012.0
20260509150004 68 244 2.0 7.0 0.00 0.00 0.00 67 1011.9
20260509145505 67 233 3.0 12.0 0.00 0.00 0.00 67 1012.0
20260509145005 67 204 3.0 12.0 0.00 0.00 0.00 67 1012.1
20260509144504 67 225 5.0 12.0 0.00 0.00 0.00 68 1012.3
20260509143504 66 240 2.0 12.0 0.00 0.00 0.00 69 1012.4
20260509143006 66 232 5.0 8.0 0.00 0.00 0.00 69 1012.6
20260509142505 66 228 2.0 7.0 0.00 0.00 0.00 71 1012.6
20260509142004 66 235 3.0 8.0 0.00 0.00 0.00 71 1012.6
20260509141005 65 235 4.0 8.0 0.00 0.00 0.00 73 1012.7
20260509140505 65 220 2.0 7.0 0.00 0.00 0.00 74 1012.7
20260509140006 65 226 2.0 7.0 0.00 0.00 0.00 74 1012.6
20260509135505 64 205 3.0 8.0 0.00 0.00 0.00 75 1012.6
20260509135005 64 223 4.0 8.0 0.00 0.00 0.00 75 1012.7
20260509134505 63 223 2.0 7.0 0.00 0.00 0.00 77 1012.8
20260509134005 63 237 3.0 6.0 0.00 0.00 0.00 77 1012.9
20260509133504 63 206 3.0 7.0 0.00 0.00 0.00 77 1013.1
20260509133005 63 238 3.0 7.0 0.00 0.00 0.00 78 1013.1
20260509132504 62 217 5.0 7.0 0.00 0.00 0.00 78 1013.2
20260509132005 62 227 2.0 7.0 0.00 0.00 0.00 79 1013.3
20260509131504 62 217 4.0 7.0 0.00 0.00 0.00 78 1013.3
20260509130504 62 218 2.0 9.0 0.00 0.00 0.00 80 1013.1
20260509130005 61 213 3.0 9.0 0.00 0.00 0.00 79 1013.1
20260509125505 61 224 5.0 7.0 0.00 0.00 0.00 81 1013.0
20260509125005 61 223 2.0 5.0 0.00 0.00 0.00 82 1012.9
20260509124504 60 221 3.0 6.0 0.00 0.00 0.00 82 1013.0
20260509124005 60 219 3.0 7.0 0.00 0.00 0.00 83 1013.0
20260509123505 59 204 3.0 7.0 0.00 0.00 0.00 83 1013.1
20260509123005 59 231 2.0 7.0 0.00 0.00 0.00 84 1013.1
20260509122504 58 213 2.0 7.0 0.00 0.00 0.00 85 1013.1
20260509122005 58 209 2.0 7.0 0.00 0.00 0.00 86 1013.2
20260509121505 58 210 3.0 7.0 0.00 0.00 0.00 86 1013.2
20260509121005 57 216 2.0 5.0 0.00 0.00 0.00 86 1013.3
20260509120504 57 235 1.0 3.0 0.00 0.00 0.00 87 1013.4
20260509120004 56 236 2.0 3.0 0.00 0.00 0.00 87 1013.3
20260509115506 56 192 0.0 3.0 0.00 0.00 0.00 87 1013.1
20260509115005 56 192 2.0 3.0 0.00 0.00 0.00 88 1013.2
20260509114004 55 196 1.0 3.0 0.00 0.00 0.00 88 1013.0
20260509113504 55 173 1.0 3.0 0.00 0.00 0.00 89 1012.9
20260509113004 55 172 1.0 5.0 0.00 0.00 0.00 89 1013.0
20260509112504 54 94 0.0 5.0 0.00 0.00 0.00 89 1013.0
20260509112004 54 209 1.0 3.0 0.00 0.00 0.00 89 1012.9
20260509111505 54 209 0.0 1.0 0.00 0.00 0.00 89 1012.9
20260509111005 54 209 0.0 3.0 0.00 0.00 0.00 89 1012.9
20260509110505 54 209 1.0 3.0 0.00 0.00 0.00 89 1013.0
20260509110004 54 209 0.0 3.0 0.00 0.00 0.00 89 1012.9
20260509105505 53 209 1.0 3.0 0.00 0.00 0.00 89 1012.9
20260509105004 53 165 0.0 0.0 0.00 0.00 0.00 88 1013.0
20260509104505 53 165 0.0 0.0 0.00 0.00 0.00 88 1013.0
20260509104005 53 71 0.0 0.0 0.00 0.00 0.00 88 1013.0
20260509103504 53 69 0.0 2.0 0.00 0.00 0.00 88 1013.0
20260509102504 53 66 0.0 2.0 0.00 0.00 0.00 87 1013.0
20260509102005 53 66 0.0 0.0 0.00 0.00 0.00 87 1012.8
20260509101510 53 66 0.0 0.0 0.00 0.00 0.00 87 1012.8
20260509101005 53 65 0.0 0.0 0.00 0.00 0.00 86 1012.8
20260509100505 53 65 0.0 0.0 0.00 0.00 0.00 86 1012.8
20260509100005 53 65 0.0 0.0 0.00 0.00 0.00 86 1012.8
20260509095505 54 65 0.0 0.0 0.00 0.00 0.00 85 1012.8
20260509095004 54 237 0.0 3.0 0.00 0.00 0.00 85 1012.9
20260509094504 54 237 1.0 3.0 0.00 0.00 0.00 85 1012.9
20260509094005 54 180 0.0 3.0 0.00 0.00 0.00 84 1012.9
20260509093505 54 205 0.0 3.0 0.00 0.00 0.00 84 1012.9
20260509093005 54 204 1.0 3.0 0.00 0.00 0.00 84 1013.0
20260509092505 54 200 0.0 6.0 0.00 0.00 0.00 83 1012.9
20260509091508 55 112 2.0 6.0 0.00 0.00 0.00 82 1013.1
20260509091005 55 257 1.0 3.0 0.00 0.00 0.00 82 1013.1
20260509090505 55 237 0.0 3.0 0.00 0.00 0.00 81 1013.0
20260509090004 55 195 0.0 2.0 0.00 0.00 0.00 81 1013.0
20260509085505 55 194 0.0 3.0 0.00 0.00 0.00 81 1012.9
20260509085005 55 194 0.0 5.0 0.00 0.00 0.00 81 1012.9
20260509084505 55 144 1.0 5.0 0.00 0.00 0.00 80 1012.9
20260509084005 55 205 1.0 3.0 0.00 0.00 0.00 80 1012.8
20260509083504 55 154 1.0 5.0 0.00 0.00 0.00 80 1012.8
20260509083004 55 187 1.0 5.0 0.00 0.00 0.00 80 1012.8
20260509082005 55 221 0.0 0.0 0.00 0.00 0.00 80 1012.8
20260509081504 55 221 0.0 0.0 0.00 0.00 0.00 80 1012.7
20260509081005 55 221 0.0 0.0 0.00 0.00 0.00 79 1012.7
20260509080504 55 221 0.0 0.0 0.00 0.00 0.00 79 1012.7
20260509080004 55 221 0.0 0.0 0.00 0.00 0.00 78 1012.8
20260509075504 55 221 0.0 0.0 0.00 0.00 0.00 77 1012.9
20260509075004 56 221 0.0 0.0 0.00 0.00 0.00 77 1013.0
20260509074504 56 221 0.0 0.0 0.00 0.00 0.00 76 1013.0
20260509073504 56 221 0.0 0.0 0.00 0.00 0.00 76 1013.1
20260509073004 57 221 0.0 0.0 0.00 0.00 0.00 75 1013.1
20260509072004 57 221 0.0 0.0 0.00 0.00 0.00 76 1013.1
20260509071505 56 221 0.0 3.0 0.00 0.00 0.00 75 1013.1
20260509071004 56 221 0.0 3.0 0.00 0.00 0.00 75 1013.2
20260509070504 56 220 1.0 3.0 0.00 0.00 0.00 75 1013.2
20260509065506 56 213 1.0 5.0 0.00 0.00 0.00 76 1013.4
20260509065005 56 205 2.0 5.0 0.00 0.00 0.00 75 1013.5
20260509064504 56 208 0.0 3.0 0.00 0.00 0.00 75 1013.5
20260509064005 56 208 1.0 3.0 0.00 0.00 0.00 75 1013.7
20260509063504 56 207 2.0 3.0 0.00 0.00 0.00 75 1013.8
20260509063004 56 204 1.0 3.0 0.00 0.00 0.00 74 1013.9
20260509062504 56 188 1.0 3.0 0.00 0.00 0.00 74 1014.0
20260509062004 56 202 1.0 3.0 0.00 0.00 0.00 74 1014.0
20260509061504 56 190 0.0 3.0 0.00 0.00 0.00 73 1014.2
20260509061004 56 188 1.0 3.0 0.00 0.00 0.00 73 1014.2
20260509060504 56 216 0.0 0.0 0.00 0.00 0.00 72 1014.3
20260509055505 56 216 0.0 0.0 0.00 0.00 0.00 71 1014.2
20260509055004 56 216 0.0 0.0 0.00 0.00 0.00 71 1014.2
20260509054504 56 216 0.0 0.0 0.00 0.00 0.00 70 1014.1
20260509054004 57 216 0.0 2.0 0.00 0.00 0.00 70 1014.2
20260509053504 57 216 0.0 3.0 0.00 0.00 0.00 70 1014.2
20260509053004 57 220 1.0 3.0 0.00 0.00 0.00 69 1014.1
20260509052504 57 117 0.0 2.0 0.00 0.00 0.00 68 1014.1
20260509052005 57 117 0.0 3.0 0.00 0.00 0.00 68 1014.0
20260509051504 57 117 1.0 3.0 0.00 0.00 0.00 67 1014.0
20260509051004 58 227 0.0 2.0 0.00 0.00 0.00 67 1014.0
20260509050504 58 227 1.0 2.0 0.00 0.00 0.00 67 1013.9
20260509050004 58 227 0.0 2.0 0.00 0.00 0.00 66 1013.9
20260509045504 58 227 0.0 2.0 0.00 0.00 0.00 66 1013.9
20260509045004 58 227 0.0 3.0 0.00 0.00 0.00 66 1013.8
20260509044504 58 227 1.0 3.0 0.00 0.00 0.00 65 1013.8
20260509044005 59 227 1.0 3.0 0.00 0.00 0.00 65 1013.8
20260509043503 59 227 1.0 2.0 0.00 0.00 0.00 64 1013.8
20260509043004 59 227 0.0 2.0 0.00 0.00 0.00 64 1013.7
20260509042504 59 227 1.0 2.0 0.00 0.00 0.00 64 1013.8
20260509042005 59 227 0.0 2.0 0.00 0.00 0.00 64 1013.8
20260509041504 59 227 1.0 5.0 0.00 0.00 0.00 63 1013.9
20260509040504 60 227 0.0 0.0 0.00 0.00 0.00 63 1013.9
20260509035503 60 227 0.0 3.0 0.00 0.00 0.00 61 1013.9
20260509035004 60 227 0.0 3.0 0.00 0.00 0.00 61 1014.0
20260509034504 61 227 1.0 3.0 0.00 0.00 0.00 60 1014.1
20260509034005 61 227 0.0 3.0 0.00 0.00 0.00 60 1014.1
20260509033503 61 227 1.0 3.0 0.00 0.00 0.00 59 1014.2
20260509033004 61 225 1.0 3.0 0.00 0.00 0.00 58 1014.3
20260509032504 61 226 1.0 5.0 0.00 0.00 0.00 58 1014.4
20260509032004 61 226 1.0 5.0 0.00 0.00 0.00 58 1014.3
20260509031504 61 223 2.0 5.0 0.00 0.00 0.00 58 1014.3
20260509031005 61 206 0.0 3.0 0.00 0.00 0.00 58 1014.3
20260509030504 61 201 2.0 3.0 0.00 0.00 0.00 57 1014.2
20260509030004 61 235 1.0 3.0 0.00 0.00 0.00 57 1014.1
20260509025504 62 240 1.0 3.0 0.00 0.00 0.00 57 1014.2
20260509024503 62 241 1.0 5.0 0.00 0.00 0.00 55 1014.3
20260509023503 61 234 3.0 5.0 0.00 0.00 0.00 55 1014.4
20260509023006 61 217 2.0 3.0 0.00 0.00 0.00 55 1014.3
20260509022505 61 217 1.0 3.0 0.00 0.00 0.00 55 1014.2
20260509022003 61 218 1.0 3.0 0.00 0.00 0.00 55 1014.2
20260509021503 61 213 1.0 3.0 0.00 0.00 0.00 55 1014.3
20260509021003 61 209 1.0 3.0 0.00 0.00 0.00 55 1014.3
20260509020503 61 206 1.0 3.0 0.00 0.00 0.00 54 1014.3
20260509020004 61 205 0.0 2.0 0.00 0.00 0.00 55 1014.3
20260509015504 62 205 0.0 2.0 0.00 0.00 0.00 54 1014.0
20260509015003 62 205 0.0 3.0 0.00 0.00 0.00 54 1014.0
20260509013504 62 221 0.0 3.0 0.00 0.00 0.00 53 1014.0
20260509012504 62 229 1.0 2.0 0.00 0.00 0.00 52 1013.9
20260509012006 63 229 0.0 2.0 0.00 0.00 0.00 53 1013.8
20260509011505 63 229 1.0 2.0 0.00 0.00 0.00 51 1013.7
20260509010505 64 229 0.0 2.0 0.00 0.00 0.00 51 1013.8
20260509010005 64 229 1.0 2.0 0.00 0.00 0.00 49 1013.7
20260509005505 64 229 0.0 2.0 0.00 0.00 0.00 49 1013.8
20260509005005 64 229 0.0 2.0 0.00 0.00 0.00 49 1013.8
20260509004505 65 229 1.0 3.0 0.00 0.00 0.00 49 1013.7
20260509004005 65 229 1.0 3.0 0.00 0.00 0.00 48 1013.8
20260509003504 65 229 1.0 3.0 0.00 0.00 0.00 47 1013.8
20260509002505 66 229 1.0 3.0 0.00 0.00 0.00 47 1013.6
20260509002005 66 227 2.0 5.0 0.00 0.00 0.00 46 1013.6
20260509001505 66 227 1.0 5.0 0.00 0.00 0.00 45 1013.6
20260509001004 67 229 2.0 5.0 0.00 0.00 0.00 46 1013.6
20260509000504 67 229 2.0 5.0 0.00 0.00 0.00 46 1013.6
20260509000004 67 221 1.0 3.0 0.00 0.00 0.00 46 1013.5
20260508235504 67 221 2.0 3.0 0.00 0.00 0.00 46 1013.5
20260508235005 68 217 2.0 3.0 0.00 0.00 0.00 45 1013.4
20260508234504 68 217 2.0 3.0 0.00 0.00 0.00 44 1013.3
20260508234005 68 216 2.0 3.0 0.00 0.00 0.00 44 1013.2
20260508233006 69 218 1.0 5.0 0.00 0.00 0.00 43 1013.1
20260508232504 69 219 3.0 5.0 0.00 0.00 0.00 42 1013.1
20260508232006 69 224 2.0 6.0 0.00 0.00 0.00 42 1013.0
20260508231505 69 229 3.0 6.0 0.00 0.00 0.00 42 1013.0
20260508231005 69 218 2.0 5.0 0.00 0.00 0.00 42 1013.0
20260508230505 70 230 3.0 6.0 0.00 0.00 0.00 42 1013.0
20260508230005 70 214 2.0 6.0 0.00 0.00 0.00 42 1013.0
20260508225504 70 224 2.0 6.0 0.00 0.00 0.00 42 1013.0
20260508225005 70 229 2.0 6.0 0.00 0.00 0.00 41 1013.0
20260508224504 70 226 3.0 7.0 0.00 0.00 0.00 40 1013.0
20260508224005 70 227 5.0 7.0 0.00 0.00 0.00 40 1013.1
20260508223504 71 234 3.0 7.0 0.00 0.00 0.00 39 1013.0
20260508223004 71 223 4.0 7.0 0.00 0.00 0.00 38 1013.1
20260508222504 72 205 3.0 7.0 0.00 0.00 0.00 39 1013.0
20260508222006 72 241 3.0 7.0 0.00 0.00 0.00 38 1013.1
20260508221004 73 206 2.0 6.0 0.00 0.00 0.00 38 1013.3
20260508220504 73 227 3.0 12.0 0.00 0.00 0.00 39 1013.3
20260508220005 73 216 3.0 12.0 0.00 0.00 0.00 37 1013.3
20260508215005 73 249 3.0 10.0 0.00 0.00 0.00 37 1013.3
20260508214504 73 220 3.0 10.0 0.00 0.00 0.00 37 1013.3
20260508214005 73 216 1.0 10.0 0.00 0.00 0.00 39 1013.3
20260508213504 73 199 5.0 10.0 0.00 0.00 0.00 37 1013.4
20260508213004 73 226 4.0 9.0 0.00 0.00 0.00 36 1013.4
20260508212504 73 210 5.0 9.0 0.00 0.00 0.00 36 1013.3
20260508212004 74 223 2.0 6.0 0.00 0.00 0.00 37 1013.3
20260508211505 74 202 2.0 5.0 0.00 0.00 0.00 35 1013.2
20260508211006 73 220 1.0 7.0 0.00 0.00 0.00 36 1013.2
20260508210504 73 177 3.0 8.0 0.00 0.00 0.00 38 1013.3
20260508210004 73 217 5.0 8.0 0.00 0.00 0.00 36 1013.3
20260508205505 73 204 2.0 7.0 0.00 0.00 0.00 38 1013.4
20260508205004 73 227 3.0 6.0 0.00 0.01 0.00 36 1013.4
20260508204005 73 238 2.0 7.0 0.00 0.02 0.00 37 1013.6
20260508203505 73 40 1.0 6.0 0.00 0.04 0.00 37 1013.5
20260508203004 74 229 4.0 6.0 0.00 0.05 0.00 37 1013.6
20260508202006 73 234 3.0 6.0 0.00 0.09 0.00 38 1013.7
20260508201505 72 236 2.0 6.0 0.00 0.10 0.00 39 1013.7
20260508201005 73 234 2.0 7.0 0.00 0.12 0.00 38 1013.7
20260508200505 72 232 3.0 7.0 0.00 0.15 0.00 39 1013.8
20260508200005 72 237 2.0 5.0 0.00 0.17 0.00 39 1013.7
20260508195505 72 278 2.0 8.0 0.00 0.27 0.00 39 1013.8
20260508195005 72 230 3.0 10.0 0.00 0.29 0.00 40 1014.0
20260508194505 72 222 4.0 10.0 0.00 0.29 0.00 39 1014.0
20260508194005 72 215 3.0 7.0 0.00 0.29 0.00 39 1014.1
20260508193506 73 221 3.0 7.0 0.00 0.29 0.00 38 1014.2
20260508193005 72 201 2.0 6.0 0.00 0.29 0.00 38 1014.3
20260508192504 72 216 2.0 8.0 0.00 0.29 0.00 40 1014.3
20260508192006 72 232 2.0 8.0 0.00 0.29 0.00 40 1014.4
20260508191004 71 282 2.0 8.0 0.00 0.29 0.00 40 1014.7
20260508190505 71 280 3.0 7.0 0.00 0.29 0.00 40 1014.9
20260508190004 72 224 3.0 7.0 0.00 0.29 0.00 42 1014.9
20260508185504 71 237 4.0 7.0 0.00 0.29 0.00 40 1015.0
20260508185005 70 230 2.0 8.0 0.00 0.29 0.00 41 1015.1
20260508184005 71 218 5.0 8.0 0.00 0.29 0.00 42 1015.1
20260508183504 70 207 0.0 8.0 0.00 0.29 0.00 43 1015.1
20260508183004 70 212 2.0 8.0 0.00 0.29 0.00 42 1015.2
20260508182504 70 232 2.0 7.0 0.00 0.29 0.00 42 1015.3
20260508182004 70 237 3.0 8.0 0.00 0.29 0.00 42 1015.3
20260508181505 69 213 3.0 8.0 0.00 0.29 0.00 41 1015.4
20260508181004 69 246 0.0 12.0 0.00 0.29 0.00 41 1015.5
20260508180504 70 245 5.0 12.0 0.00 0.29 0.00 41 1015.6
20260508180004 70 231 1.0 6.0 0.00 0.29 0.00 41 1015.6
20260508175504 69 205 2.0 6.0 0.00 0.29 0.00 45 1015.6
20260508175004 69 220 3.0 6.0 0.00 0.29 0.00 42 1015.7
20260508174504 69 210 1.0 8.0 0.00 0.29 0.00 42 1015.7
20260508173504 69 228 3.0 9.0 0.00 0.29 0.00 42 1015.7
20260508173004 68 259 3.0 8.0 0.00 0.29 0.00 44 1015.8
20260508172005 69 243 3.0 7.0 0.00 0.29 0.00 42 1016.1